Overview Statistics Trail Chart Weather Telemetry Raw packets
 

This is the latest recevied weather packets stored in our database for station/object K5OLV. If no packets are shown the sender has not sent any weather packets the latest 10 day(s).

<< 21 22 23 24 25 26 27 >>
Time Temp. Humidity Pressure Rain* Wind** Luminosity Snow
1788468124 34.44° C 52% 1015 hPa 0 mm - 541 W/m² -
1788467819 33.89° C 54% 1014.9 hPa 0 mm - 513 W/m² -
1788467514 34.44° C 54% 1014.7 hPa 0 mm - 517 W/m² -
1788467209 34.44° C 53% 1014.8 hPa 0 mm - 545 W/m² -
1788466904 35° C 53% 1015 hPa 0 mm - 540 W/m² -
1788466598 34.44° C 51% 1014.6 hPa 0 mm - 570 W/m² -
1788466298 34.44° C 54% 1015 hPa 0 mm - 580 W/m² -
1788465993 34.44° C 53% 1015.1 hPa 0 mm - 576 W/m² -
1788465688 33.33° C 55% 1015.4 hPa 0 mm - 597 W/m² -
1788465384 33.33° C 56% 1015.3 hPa 0 mm - 603 W/m² -
1788465080 33.89° C 58% 1015.4 hPa 0 mm - 597 W/m² -
1788464775 33.89° C 56% 1015.5 hPa 0 mm - 618 W/m² -
1788464474 34.44° C 55% 1015.3 hPa 0 mm - 642 W/m² -
1788464171 35° C 54% 1015.4 hPa 0 mm - 638 W/m² -
1788463866 34.44° C 54% 1015.4 hPa 0 mm - 636 W/m² -
1788463563 33.89° C 54% 1015.5 hPa 0 mm - 657 W/m² -
1788463257 33.33° C 56% 1015.8 hPa 0 mm - 638 W/m² -
1788462954 32.78° C 58% 1015.8 hPa 0 mm - 636 W/m² -
1788462648 32.78° C 59% 1015.8 hPa 0 mm - 193 W/m² -
1788462348 33.89° C 56% 1016 hPa 0 mm - 167 W/m² -
1788462047 33.89° C 56% 1015.9 hPa 0 mm - 687 W/m² -
1788461743 35° C 54% 1015.8 hPa 0 mm - 683 W/m² -
1788461438 33.89° C 57% 1016 hPa 0 mm - 701 W/m² -
1788461135 33.33° C 59% 1015.6 hPa 0 mm - 675 W/m² -
1788460829 33.33° C 57% 1016 hPa 0 mm - 653 W/m² -

* Rain latest hour (hover to see other rain measurements)
** Current wind speed in m/s (hover to see current wind gust speed)